����������;��������(kWh)
2016-05-23 00:00;70,05
2016-05-23 00:15;69,35
2016-05-23 00:30;70,45
2016-05-23 00:45;71,9
2016-05-23 01:00;76
2016-05-23 01:15;74,05
2016-05-23 01:30;75,5
2016-05-23 01:45;75,4
2016-05-23 02:00;70,7
2016-05-23 02:15;68,75
2016-05-23 02:30;67,7
2016-05-23 02:45;67,65
2016-05-23 03:00;68,65
2016-05-23 03:15;70,8
2016-05-23 03:30;68,7
2016-05-23 03:45;68,5
2016-05-23 04:00;67,4
2016-05-23 04:15;66,75
2016-05-23 04:30;66,2
2016-05-23 04:45;68,55
2016-05-23 05:00;68,45
2016-05-23 05:15;68,65
2016-05-23 05:30;68,9
2016-05-23 05:45;72,85
2016-05-23 06:00;72,15
2016-05-23 06:15;73,55
2016-05-23 06:30;73,05
2016-05-23 06:45;72,35
2016-05-23 07:00;70,75
2016-05-23 07:15;68,4
2016-05-23 07:30;69
2016-05-23 07:45;78,3
2016-05-23 08:00;80,15
2016-05-23 08:15;79,65
2016-05-23 08:30;88,9
2016-05-23 08:45;93,2
2016-05-23 09:00;92,5
2016-05-23 09:15;99,8
2016-05-23 09:30;101,6
2016-05-23 09:45;101,95
2016-05-23 10:00;106,35
2016-05-23 10:15;108
2016-05-23 10:30;118,2
2016-05-23 10:45;123,25
2016-05-23 11:00;124,65
2016-05-23 11:15;131,35
2016-05-23 11:30;124,9
2016-05-23 11:45;120,45
2016-05-23 12:00;119,8
2016-05-23 12:15;120,35
2016-05-23 12:30;123,65
2016-05-23 12:45;127,2
2016-05-23 13:00;126,7
2016-05-23 13:15;125,75
2016-05-23 13:30;129
2016-05-23 13:45;125,85
2016-05-23 14:00;123,45
2016-05-23 14:15;123,75
2016-05-23 14:30;122,7
2016-05-23 14:45;119,4
2016-05-23 15:00;117,5
2016-05-23 15:15;115
2016-05-23 15:30;112,7
2016-05-23 15:45;112,95
2016-05-23 16:00;117,45
2016-05-23 16:15;114,85
2016-05-23 16:30;112,7
2016-05-23 16:45;113,2
2016-05-23 17:00;107,3
2016-05-23 17:15;98,25
2016-05-23 17:30;100,9
2016-05-23 17:45;98
2016-05-23 18:00;96,9
2016-05-23 18:15;97,9
2016-05-23 18:30;97,3
2016-05-23 18:45;96,5
2016-05-23 19:00;101,7
2016-05-23 19:15;102,85
2016-05-23 19:30;103,65
2016-05-23 19:45;97,85
2016-05-23 20:00;98,45
2016-05-23 20:15;96,55
2016-05-23 20:30;94,85
2016-05-23 20:45;94,9
2016-05-23 21:00;98,7
2016-05-23 21:15;98,85
2016-05-23 21:30;93,75
2016-05-23 21:45;87,5
2016-05-23 22:00;89,15
2016-05-23 22:15;89,65
2016-05-23 22:30;87,2
2016-05-23 22:45;88,5
2016-05-23 23:00;91
2016-05-23 23:15;83,1
2016-05-23 23:30;84,25
2016-05-23 23:45;82,7
2016-05-24 00:00;76,45
2016-05-24 00:15;76,3
2016-05-24 00:30;76,75
2016-05-24 00:45;77,1
2016-05-24 01:00;76,25
2016-05-24 01:15;73,7
2016-05-24 01:30;72,75
2016-05-24 01:45;72,7
2016-05-24 02:00;72,4
2016-05-24 02:15;72,55
2016-05-24 02:30;71,3
2016-05-24 02:45;73,3
2016-05-24 03:00;73,25
2016-05-24 03:15;74,9
2016-05-24 03:30;73,55
2016-05-24 03:45;73,05
2016-05-24 04:00;70,7
2016-05-24 04:15;71,3
2016-05-24 04:30;71,4
2016-05-24 04:45;71,15
2016-05-24 05:00;71,1
2016-05-24 05:15;72,45
2016-05-24 05:30;72,2
2016-05-24 05:45;75,65
2016-05-24 06:00;73,95
2016-05-24 06:15;74,2
2016-05-24 06:30;79,45
2016-05-24 06:45;77,15
2016-05-24 07:00;76,85
2016-05-24 07:15;76,8
2016-05-24 07:30;78,2
2016-05-24 07:45;86,5
2016-05-24 08:00;87,8
2016-05-24 08:15;85,4
2016-05-24 08:30;88,45
2016-05-24 08:45;98,65
2016-05-24 09:00;96,35
2016-05-24 09:15;99,65
2016-05-24 09:30;99,9
2016-05-24 09:45;101,1
2016-05-24 10:00;100,95
2016-05-24 10:15;101,95
2016-05-24 10:30;108,95
2016-05-24 10:45;112,25
2016-05-24 11:00;116,1
2016-05-24 11:15;113,8
2016-05-24 11:30;111,4
2016-05-24 11:45;116,15
2016-05-24 12:00;119,65
2016-05-24 12:15;122,4
2016-05-24 12:30;124,15
2016-05-24 12:45;132,15
2016-05-24 13:00;128,8
2016-05-24 13:15;130,2
2016-05-24 13:30;138,95
2016-05-24 13:45;135,45
2016-05-24 14:00;137,35
2016-05-24 14:15;133,45
2016-05-24 14:30;129
2016-05-24 14:45;125,1
2016-05-24 15:00;127,1
2016-05-24 15:15;121,95
2016-05-24 15:30;120,85
2016-05-24 15:45;120,6
2016-05-24 16:00;119,95
2016-05-24 16:15;120,15
2016-05-24 16:30;113,5
2016-05-24 16:45;107,25
2016-05-24 17:00;109,75
2016-05-24 17:15;106,55
2016-05-24 17:30;104,3
2016-05-24 17:45;105,7
2016-05-24 18:00;103,5
2016-05-24 18:15;105,5
2016-05-24 18:30;99,1
2016-05-24 18:45;99,1
2016-05-24 19:00;98,35
2016-05-24 19:15;94,6
2016-05-24 19:30;97,05
2016-05-24 19:45;94,65
2016-05-24 20:00;92,25
2016-05-24 20:15;90,05
2016-05-24 20:30;92,1
2016-05-24 20:45;93,6
2016-05-24 21:00;96,7
2016-05-24 21:15;95,2
2016-05-24 21:30;94,5
2016-05-24 21:45;90,8
2016-05-24 22:00;90,85
2016-05-24 22:15;89,55
2016-05-24 22:30;86,95
2016-05-24 22:45;82
2016-05-24 23:00;81,95
2016-05-24 23:15;78,9
2016-05-24 23:30;80,3
2016-05-24 23:45;81,7
2016-05-25 00:00;74,1
2016-05-25 00:15;74,45
2016-05-25 00:30;73,35
2016-05-25 00:45;73,9
2016-05-25 01:00;74,8
2016-05-25 01:15;72,65
2016-05-25 01:30;71,75
2016-05-25 01:45;70,5
2016-05-25 02:00;72,25
2016-05-25 02:15;70,6
2016-05-25 02:30;69,05
2016-05-25 02:45;68,9
2016-05-25 03:00;70,4
2016-05-25 03:15;70,25
2016-05-25 03:30;69,45
2016-05-25 03:45;71,45
2016-05-25 04:00;68,65
2016-05-25 04:15;70,6
2016-05-25 04:30;68,7
2016-05-25 04:45;69,5
2016-05-25 05:00;70,15
2016-05-25 05:15;70,45
2016-05-25 05:30;69,15
2016-05-25 05:45;71,45
2016-05-25 06:00;74,9
2016-05-25 06:15;74,45
2016-05-25 06:30;77,15
2016-05-25 06:45;81,2
2016-05-25 07:00;79,7
2016-05-25 07:15;80,8
2016-05-25 07:30;83,2
2016-05-25 07:45;84,55
2016-05-25 08:00;82,35
2016-05-25 08:15;83,9
2016-05-25 08:30;86,35
2016-05-25 08:45;90,95
2016-05-25 09:00;93,65
2016-05-25 09:15;99,4
2016-05-25 09:30;96,15
2016-05-25 09:45;99,3
2016-05-25 10:00;105,7
2016-05-25 10:15;112,9
2016-05-25 10:30;115,75
2016-05-25 10:45;115,95
2016-05-25 11:00;117,85
2016-05-25 11:15;124,25
2016-05-25 11:30;133,3
2016-05-25 11:45;134,1
2016-05-25 12:00;132,6
2016-05-25 12:15;133,25
2016-05-25 12:30;125,05
2016-05-25 12:45;124,2
2016-05-25 13:00;123,2
2016-05-25 13:15;127,15
2016-05-25 13:30;131,45
2016-05-25 13:45;133,95
2016-05-25 14:00;132,85
2016-05-25 14:15;129,95
2016-05-25 14:30;126,85
2016-05-25 14:45;125,4
2016-05-25 15:00;118,55
2016-05-25 15:15;119,35
2016-05-25 15:30;112,5
2016-05-25 15:45;109,4
2016-05-25 16:00;109,6
2016-05-25 16:15;108,05
2016-05-25 16:30;108,75
2016-05-25 16:45;104,1
2016-05-25 17:00;100,7
2016-05-25 17:15;101,65
2016-05-25 17:30;99,75
2016-05-25 17:45;103,9
2016-05-25 18:00;103,05
2016-05-25 18:15;109,45
2016-05-25 18:30;103,35
2016-05-25 18:45;100,65
2016-05-25 19:00;97,55
2016-05-25 19:15;93,75
2016-05-25 19:30;95,55
2016-05-25 19:45;89,45
2016-05-25 20:00;87,9
2016-05-25 20:15;90,4
2016-05-25 20:30;89,1
2016-05-25 20:45;90,5
2016-05-25 21:00;92
2016-05-25 21:15;88,85
2016-05-25 21:30;88,95
2016-05-25 21:45;82,9
2016-05-25 22:00;82,4
2016-05-25 22:15;81,8
2016-05-25 22:30;80,45
2016-05-25 22:45;77,9
2016-05-25 23:00;78,7
2016-05-25 23:15;75,5
2016-05-25 23:30;75,55
2016-05-25 23:45;77,5
2016-05-26 00:00;78,85
2016-05-26 00:15;78,7
2016-05-26 00:30;79,85
2016-05-26 00:45;79,45
2016-05-26 01:00;79,5
2016-05-26 01:15;71,4
2016-05-26 01:30;71,75
2016-05-26 01:45;71,95
2016-05-26 02:00;73,15
2016-05-26 02:15;71,8
2016-05-26 02:30;70,8
2016-05-26 02:45;70,15
2016-05-26 03:00;70,85
2016-05-26 03:15;73,45
2016-05-26 03:30;71,25
2016-05-26 03:45;70,05
2016-05-26 04:00;69,9
2016-05-26 04:15;68,3
2016-05-26 04:30;68,3
2016-05-26 04:45;69,95
2016-05-26 05:00;71,25
2016-05-26 05:15;68,55
2016-05-26 05:30;67,2
2016-05-26 05:45;73,05
2016-05-26 06:00;71,45
2016-05-26 06:15;71,85
2016-05-26 06:30;74,1
2016-05-26 06:45;74,15
2016-05-26 07:00;73,1
2016-05-26 07:15;73,3
2016-05-26 07:30;76,2
2016-05-26 07:45;80,7
2016-05-26 08:00;80,2
2016-05-26 08:15;83,4
2016-05-26 08:30;85,85
2016-05-26 08:45;88,05
2016-05-26 09:00;91,65
2016-05-26 09:15;96,45
2016-05-26 09:30;92,65
2016-05-26 09:45;93,75
2016-05-26 10:00;100,8
2016-05-26 10:15;104,35
2016-05-26 10:30;105,05
2016-05-26 10:45;115,15
2016-05-26 11:00;115,5
2016-05-26 11:15;121,6
2016-05-26 11:30;126,9
2016-05-26 11:45;128,25
2016-05-26 12:00;132,35
2016-05-26 12:15;134,9
2016-05-26 12:30;125,8
2016-05-26 12:45;126,05
2016-05-26 13:00;126,65
2016-05-26 13:15;129,5
2016-05-26 13:30;132,4
2016-05-26 13:45;134,5
2016-05-26 14:00;135,05
2016-05-26 14:15;129,2
2016-05-26 14:30;131,55
2016-05-26 14:45;125,25
2016-05-26 15:00;124,1
2016-05-26 15:15;122,75
2016-05-26 15:30;120,25
2016-05-26 15:45;119,1
2016-05-26 16:00;116,9
2016-05-26 16:15;113,2
2016-05-26 16:30;110,7
2016-05-26 16:45;110,9
2016-05-26 17:00;108,7
2016-05-26 17:15;106,15
2016-05-26 17:30;103,8
2016-05-26 17:45;107,15
2016-05-26 18:00;104,75
2016-05-26 18:15;108,05
2016-05-26 18:30;101,05
2016-05-26 18:45;102,35
2016-05-26 19:00;105,45
2016-05-26 19:15;106,4
2016-05-26 19:30;105,7
2016-05-26 19:45;101,95
2016-05-26 20:00;100
2016-05-26 20:15;92,95
2016-05-26 20:30;91,1
2016-05-26 20:45;94,95
2016-05-26 21:00;97,95
2016-05-26 21:15;93,8
2016-05-26 21:30;91,1
2016-05-26 21:45;93,8
2016-05-26 22:00;91,5
2016-05-26 22:15;87,75
2016-05-26 22:30;89,8
2016-05-26 22:45;84,8
2016-05-26 23:00;81,3
2016-05-26 23:15;77,35
2016-05-26 23:30;78,75
2016-05-26 23:45;81,4
2016-05-27 00:00;74,6
2016-05-27 00:15;73,5
2016-05-27 00:30;72,45
2016-05-27 00:45;73,7
2016-05-27 01:00;72,95
2016-05-27 01:15;71,55
2016-05-27 01:30;70,65
2016-05-27 01:45;76,85
2016-05-27 02:00;77,95
2016-05-27 02:15;76,05
2016-05-27 02:30;77,6
2016-05-27 02:45;76,85
2016-05-27 03:00;71,35
2016-05-27 03:15;70,1
2016-05-27 03:30;69,25
2016-05-27 03:45;70,55
2016-05-27 04:00;69,5
2016-05-27 04:15;70,25
2016-05-27 04:30;68,75
2016-05-27 04:45;70,6
2016-05-27 05:00;68,95
2016-05-27 05:15;69,3
2016-05-27 05:30;68
2016-05-27 05:45;75,6
2016-05-27 06:00;72,2
2016-05-27 06:15;75,7
2016-05-27 06:30;75
2016-05-27 06:45;74,15
2016-05-27 07:00;74
2016-05-27 07:15;75,95
2016-05-27 07:30;78,5
2016-05-27 07:45;85,65
2016-05-27 08:00;85,25
2016-05-27 08:15;82,35
2016-05-27 08:30;86,75
2016-05-27 08:45;89,25
2016-05-27 09:00;95,35
2016-05-27 09:15;101,8
2016-05-27 09:30;101,15
2016-05-27 09:45;95,7
2016-05-27 10:00;103,65
2016-05-27 10:15;108
2016-05-27 10:30;106,85
2016-05-27 10:45;109,6
2016-05-27 11:00;117,45
2016-05-27 11:15;123,05
2016-05-27 11:30;129,3
2016-05-27 11:45;129,85
2016-05-27 12:00;120,95
2016-05-27 12:15;116,6
2016-05-27 12:30;122,45
2016-05-27 12:45;126,85
2016-05-27 13:00;124,55
2016-05-27 13:15;123,9
2016-05-27 13:30;132,15
2016-05-27 13:45;131,15
2016-05-27 14:00;134,35
2016-05-27 14:15;131,1
2016-05-27 14:30;126,25
2016-05-27 14:45;128,75
2016-05-27 15:00;124,3
2016-05-27 15:15;123,35
2016-05-27 15:30;125,2
2016-05-27 15:45;124,15
2016-05-27 16:00;124,1
2016-05-27 16:15;120,6
2016-05-27 16:30;111,4
2016-05-27 16:45;109,95
2016-05-27 17:00;110,7
2016-05-27 17:15;105,85
2016-05-27 17:30;108,85
2016-05-27 17:45;109
2016-05-27 18:00;105,3
2016-05-27 18:15;108,7
2016-05-27 18:30;104,3
2016-05-27 18:45;103,2
2016-05-27 19:00;105,5
2016-05-27 19:15;106,25
2016-05-27 19:30;99,7
2016-05-27 19:45;99,45
2016-05-27 20:00;98,1
2016-05-27 20:15;98,45
2016-05-27 20:30;92
2016-05-27 20:45;99,05
2016-05-27 21:00;100,95
2016-05-27 21:15;97,75
2016-05-27 21:30;99,45
2016-05-27 21:45;88,2
2016-05-27 22:00;83,45
2016-05-27 22:15;81
2016-05-27 22:30;80,6
2016-05-27 22:45;79,65
2016-05-27 23:00;81,05
2016-05-27 23:15;80,35
2016-05-27 23:30;80,85
2016-05-27 23:45;84,35
2016-05-28 00:00;73,45
2016-05-28 00:15;74
2016-05-28 00:30;72,15
2016-05-28 00:45;71,05
2016-05-28 01:00;69,7
2016-05-28 01:15;70,6
2016-05-28 01:30;69,4
2016-05-28 01:45;70,45
2016-05-28 02:00;70,25
2016-05-28 02:15;72,05
2016-05-28 02:30;70,95
2016-05-28 02:45;73,35
2016-05-28 03:00;71,1
2016-05-28 03:15;72,35
2016-05-28 03:30;70,85
2016-05-28 03:45;71,45
2016-05-28 04:00;70,1
2016-05-28 04:15;70,15
2016-05-28 04:30;69,65
2016-05-28 04:45;70
2016-05-28 05:00;71,65
2016-05-28 05:15;69,05
2016-05-28 05:30;69,7
2016-05-28 05:45;71,65
2016-05-28 06:00;73,2
2016-05-28 06:15;71,7
2016-05-28 06:30;72,85
2016-05-28 06:45;72,4
2016-05-28 07:00;76,3
2016-05-28 07:15;78,8
2016-05-28 07:30;77,3
2016-05-28 07:45;79,6
2016-05-28 08:00;72,7
2016-05-28 08:15;67,7
2016-05-28 08:30;66,85
2016-05-28 08:45;64,15
2016-05-28 09:00;63,85
2016-05-28 09:15;66,25
2016-05-28 09:30;65,9
2016-05-28 09:45;63,6
2016-05-28 10:00;67,85
2016-05-28 10:15;67,55
2016-05-28 10:30;69,6
2016-05-28 10:45;70,55
2016-05-28 11:00;74,3
2016-05-28 11:15;73,75
2016-05-28 11:30;73,6
2016-05-28 11:45;77,6
2016-05-28 12:00;75,8
2016-05-28 12:15;77,9
2016-05-28 12:30;76,8
2016-05-28 12:45;75,35
2016-05-28 13:00;78,85
2016-05-28 13:15;85,15
2016-05-28 13:30;81,45
2016-05-28 13:45;75,75
2016-05-28 14:00;73,65
2016-05-28 14:15;75,7
2016-05-28 14:30;73,85
2016-05-28 14:45;73,4
2016-05-28 15:00;74,85
2016-05-28 15:15;72
2016-05-28 15:30;76,8
2016-05-28 15:45;76,35
2016-05-28 16:00;80,25
2016-05-28 16:15;80,55
2016-05-28 16:30;77,1
2016-05-28 16:45;81,55
2016-05-28 17:00;84,85
2016-05-28 17:15;86,65
2016-05-28 17:30;82,5
2016-05-28 17:45;83,4
2016-05-28 18:00;81,1
2016-05-28 18:15;85,3
2016-05-28 18:30;78,25
2016-05-28 18:45;79,8
2016-05-28 19:00;82,5
2016-05-28 19:15;81,6
2016-05-28 19:30;80,65
2016-05-28 19:45;82,85
2016-05-28 20:00;76,85
2016-05-28 20:15;76,5
2016-05-28 20:30;81,8
2016-05-28 20:45;79,65
2016-05-28 21:00;83,15
2016-05-28 21:15;83,1
2016-05-28 21:30;84,65
2016-05-28 21:45;81,55
2016-05-28 22:00;82,75
2016-05-28 22:15;81,65
2016-05-28 22:30;84,75
2016-05-28 22:45;76,85
2016-05-28 23:00;77,9
2016-05-28 23:15;73,8
2016-05-28 23:30;79,4
2016-05-28 23:45;79,8
2016-05-29 00:00;71,95
2016-05-29 00:15;70,45
2016-05-29 00:30;72,85
2016-05-29 00:45;69,55
2016-05-29 01:00;70,1
2016-05-29 01:15;70,6
2016-05-29 01:30;70,4
2016-05-29 01:45;70,2
2016-05-29 02:00;67,7
2016-05-29 02:15;70
2016-05-29 02:30;69,3
2016-05-29 02:45;70,65
2016-05-29 03:00;68,55
2016-05-29 03:15;70,5
2016-05-29 03:30;69,05
2016-05-29 03:45;70,75
2016-05-29 04:00;68,75
2016-05-29 04:15;68,15
2016-05-29 04:30;67,85
2016-05-29 04:45;68,05
2016-05-29 05:00;68
2016-05-29 05:15;67,3
2016-05-29 05:30;69
2016-05-29 05:45;68,75
2016-05-29 06:00;71,95
2016-05-29 06:15;68,8
2016-05-29 06:30;69,35
2016-05-29 06:45;70,55
2016-05-29 07:00;70,65
2016-05-29 07:15;65,5
2016-05-29 07:30;64,3
2016-05-29 07:45;64,45
2016-05-29 08:00;70,65
2016-05-29 08:15;67,95
2016-05-29 08:30;68,1
2016-05-29 08:45;19,15
2016-05-29 09:00;0
2016-05-29 09:15;0
2016-05-29 09:30;72,45
2016-05-29 09:45;71,5
2016-05-29 10:00;70,9
2016-05-29 10:15;69,95
2016-05-29 10:30;66,75
2016-05-29 10:45;70,1
2016-05-29 11:00;68,35
2016-05-29 11:15;69,4
2016-05-29 11:30;74,35
2016-05-29 11:45;70,65
2016-05-29 12:00;72,9
2016-05-29 12:15;69,35
2016-05-29 12:30;71,25
2016-05-29 12:45;73,15
2016-05-29 13:00;71,4
2016-05-29 13:15;72,3
2016-05-29 13:30;72,9
2016-05-29 13:45;72,3
2016-05-29 14:00;75,35
2016-05-29 14:15;70,35
2016-05-29 14:30;69,85
2016-05-29 14:45;73
2016-05-29 15:00;72,45
2016-05-29 15:15;76,55
2016-05-29 15:30;76,5
2016-05-29 15:45;80,6
2016-05-29 16:00;79,6
2016-05-29 16:15;75,9
2016-05-29 16:30;74,85
2016-05-29 16:45;69,2
2016-05-29 17:00;72,15
2016-05-29 17:15;69,55
2016-05-29 17:30;70,45
2016-05-29 17:45;74,05
2016-05-29 18:00;68,95
2016-05-29 18:15;71,45
2016-05-29 18:30;71,4
2016-05-29 18:45;70,9
2016-05-29 19:00;70,45
2016-05-29 19:15;70,4
2016-05-29 19:30;74,1
2016-05-29 19:45;76,8
2016-05-29 20:00;77,75
2016-05-29 20:15;78,5
2016-05-29 20:30;77,4
2016-05-29 20:45;75,8
2016-05-29 21:00;78,8
2016-05-29 21:15;78,3
2016-05-29 21:30;76,6
2016-05-29 21:45;75,2
2016-05-29 22:00;73,3
2016-05-29 22:15;75,25
2016-05-29 22:30;74,35
2016-05-29 22:45;74,65
2016-05-29 23:00;73,05
2016-05-29 23:15;72,55
2016-05-29 23:30;72,65
2016-05-29 23:45;71,6

